Santiago, Dominican Republic

12:54 AM AST on February 24, 2018 (GMT -0400)
Cibao International

Weather History for MDST - November, 2012

Change the Weather History Date:

Monday, November 5, 2012

  Actual Average Record
Temperature  
Mean Temperature 80 °F -  
Max Temperature 90 °F 86 °F 91 °F (2001)
Min Temperature 70 °F 68 °F 66 °F (2000)
Cooling Degree Days 15    
Growing Degree Days 30 (Base 50)    
Moisture  
Dew Point 72 °F    
Average Humidity 78    
Maximum Humidity 100    
Minimum Humidity 27    
Precipitation  
Precipitation 0.04 in 0.15 in - ()
Sea Level Pressure  
Sea Level Pressure 29.90 in    
Wind  
Wind Speed 5 mph ()    
Max Wind Speed 17 mph    
Max Gust Speed -    
Visibility 5.5 miles    
Events      
Averages and records for this station are not official NWS values.
T = Trace of Precipitation, MM = Missing Value Source: Averaged Metar Reports

Daily Weather History Graph

Daily Weather History Graph

Search for Another Location

Airport or City:

Trip Planner

Search our weather history database for the weather conditions in past years. The results will help you decide how hot, cold, wet, or windy it might be!

Date:

Astronomy

Nov. 05, 2012 Rise Set
Actual Time 6:45 AM AST 6:06 PM AST
Civil Twilight 6:22 AM AST 6:29 PM AST
Nautical Twilight 5:56 AM AST 6:55 PM AST
Astronomical Twilight 5:30 AM AST 7:21 PM AST
Moon 11:40 PM AST (11/5) 12:01 PM AST (11/5)
Length of Visible Light 12h 06m
Length of Day
11h 21m
Waning Gibbous, 63% of the Moon is Illuminated
Nov 5
Waning Gibbous
Nov 6
Last Quarter
Nov 13
New
Nov 20
First Quarter
Nov 28
Full

Hourly Weather History & Observations

Time (AST) Temp. Heat Index Dew Point Humidity Pressure Visibility Wind Dir Wind Speed Gust Speed Precip Events Conditions
1:00 AM - - - N/A% - - North - - N/A   Unknown
2:00 AM 73.4 °F - 71.6 °F 94% 29.92 in 6.2 mi East 4.6 mph - N/A   Scattered Clouds
4:00 AM 71.6 °F - 71.6 °F 100% 29.92 in 6.2 mi Calm Calm - N/A   Scattered Clouds
5:00 AM 71.6 °F - 71.6 °F 100% 29.89 in 6.2 mi Calm Calm - N/A   Scattered Clouds
6:00 AM 71.6 °F - 35.6 °F 27% 29.89 in 3.1 mi Calm Calm - N/A   Haze
7:00 AM - - - N/A% 29.92 in 3.7 mi Calm Calm - N/A   Overcast
8:00 AM 73 °F - 72 °F 97% 29.95 in 3 mi SSE 4.5 mph - -   Haze
8:00 AM 73.4 °F - 71.6 °F 94% 29.95 in 3.1 mi SSE 4.6 mph - N/A   Haze
9:00 AM 75.2 °F - 75.2 °F 100% 29.95 in 3.1 mi Variable 3.5 mph - N/A   Haze
10:00 AM 77.0 °F - 75.2 °F 94% 29.95 in 6.2 mi ESE 5.8 mph - N/A   Scattered Clouds
11:00 AM 80 °F - 76 °F 83% 29.95 in 6 mi SE 8.9 mph - -   Haze
11:00 AM 80.6 °F 86.2 °F 75.2 °F 84% 29.95 in 6.2 mi SE 11.5 mph - N/A   Scattered Clouds
12:00 PM 84.2 °F 92.3 °F 75.2 °F 74% 29.89 in 6.2 mi ESE 17.3 mph - N/A   Partly Cloudy
1:00 PM 86.0 °F 95.1 °F 75.2 °F 70% 29.86 in 6.2 mi ESE 17.3 mph - N/A   Partly Cloudy
2:00 PM 87 °F - 73 °F 54% 29.87 in 6 mi ESE 11.2 mph - -   Haze
2:00 PM 87.8 °F 95.6 °F 73.4 °F 62% 29.86 in 6.2 mi ESE 11.5 mph - N/A   Scattered Clouds
3:00 PM 87.8 °F 95.6 °F 73.4 °F 62% 29.83 in 6.2 mi East 10.4 mph - N/A   Scattered Clouds
4:00 PM 86.0 °F 93.4 °F 73.4 °F 66% 29.83 in 6.2 mi SE 6.9 mph - N/A   Scattered Clouds
5:00 PM 84 °F - 74 °F 65% 29.85 in 6 mi ESE 6.7 mph - -   Haze
5:00 PM 84.2 °F 90.9 °F 73.4 °F 70% 29.83 in 6.2 mi ESE 8.1 mph - N/A   Mostly Cloudy
6:00 PM 82.4 °F 88.2 °F 73.4 °F 74% 29.86 in 6.2 mi East 5.8 mph - N/A   Scattered Clouds
7:00 PM 80.6 °F 85.4 °F 73.4 °F 79% 29.86 in 6.2 mi SE 6.9 mph - N/A   Mostly Cloudy
8:00 PM 80 °F - 73 °F 74% 29.90 in 6 mi SE 4.5 mph - -   Haze
8:00 PM 80.6 °F 85.4 °F 73.4 °F 79% 29.89 in 6.2 mi SE 5.8 mph - N/A   Scattered Clouds
9:00 PM 78.8 °F - 73.4 °F 83% 29.92 in 6.2 mi SSE 4.6 mph - N/A   Scattered Clouds
10:00 PM 77.0 °F - 73.4 °F 89% 29.92 in 6.2 mi Calm Calm - N/A   Scattered Clouds
11:00 PM 78 °F - 74 °F 84% 29.93 in 5 mi Calm Calm - -   Haze